| time (UTC) | temp F | wind direction | speed knots | gust knots | rain 1hr in | rain 24hr in | rain mn in | humidity % | barometer mb |
| 20260507180025 | 65 | 182 | 2.6 | 8.7 | 0.00 | 0.00 | 0.00 | 40 | 1015.7 |
| 20260507174518 | 63 | 257 | 1.7 | 6.1 | 0.00 | 0.00 | 0.00 | 41 | 1015.9 |
| 20260507173014 | 63 | 350 | 1.7 | 7.0 | 0.00 | 0.00 | 0.00 | 41 | 1015.9 |
| 20260507171512 | 64 | 258 | 2.6 | 8.7 | 0.00 | 0.00 | 0.00 | 41 | 1016.2 |
| 20260507170009 | 63 | 330 | 0.9 | 12.2 | 0.00 | 0.00 | 0.00 | 44 | 1016.5 |
| 20260507164506 | 60 | 198 | 2.6 | 9.6 | 0.00 | 0.00 | 0.00 | 42 | 1016.8 |
| 20260507163005 | 61 | 232 | 2.6 | 9.6 | 0.00 | 0.00 | 0.00 | 43 | 1016.9 |
| 20260507161503 | 60 | 176 | 0.9 | 7.0 | 0.00 | 0.00 | 0.00 | 44 | 1017.1 |
| 20260507160005 | 60 | 233 | 4.3 | 10.4 | 0.00 | 0.00 | 0.00 | 42 | 1017.2 |
| 20260507154601 | 61 | 270 | 2.6 | 8.7 | 0.00 | 0.00 | 0.00 | 45 | 1017.3 |
| 20260507153103 | 60 | 248 | 2.6 | 9.6 | 0.00 | 0.00 | 0.00 | 46 | 1017.4 |
| 20260507151554 | 59 | 169 | 2.6 | 8.7 | 0.00 | 0.00 | 0.00 | 44 | 1017.5 |
| 20260507150052 | 58 | 300 | 2.6 | 7.8 | 0.00 | 0.00 | 0.00 | 46 | 1017.6 |
| 20260507144553 | 58 | 167 | 2.6 | 8.7 | 0.00 | 0.00 | 0.00 | 47 | 1017.7 |
| 20260507143050 | 57 | 259 | 3.5 | 8.7 | 0.00 | 0.00 | 0.00 | 48 | 1017.5 |
| 20260507141546 | 56 | 188 | 0.9 | 3.5 | 0.00 | 0.00 | 0.00 | 50 | 1017.8 |
| 20260507140043 | 55 | 206 | 0.9 | 6.1 | 0.00 | 0.00 | 0.00 | 50 | 1017.8 |
| 20260507134536 | 53 | 236 | 0.9 | 7.0 | 0.00 | 0.00 | 0.00 | 52 | 1017.9 |
| 20260507133033 | 52 | 261 | 0.9 | 5.2 | 0.00 | 0.00 | 0.00 | 53 | 1017.8 |
| 20260507131534 | 51 | 229 | 0.0 | 3.5 | 0.00 | 0.00 | 0.00 | 53 | 1018.0 |
| 20260507130028 | 49 | 141 | 0.0 | 0.9 | 0.00 | 0.00 | 0.00 | 54 | 1018.2 |
| 20260507124536 | 47 | 165 | 0.0 | 0.9 | 0.00 | 0.00 | 0.00 | 55 | 1018.3 |
| 20260507123018 | 45 | 296 | 0.0 | 0.9 | 0.00 | 0.00 | 0.00 | 58 | 1018.3 |
| 20260507121517 | 42 | 296 | 0.0 | 0.0 | 0.00 | 0.00 | 0.00 | 60 | 1018.3 |
| 20260507120016 | 40 | 296 | 0.0 | 0.0 | 0.00 | 0.00 | 0.00 | 61 | 1018.0 |
| 20260507114515 | 38 | 296 | 0.0 | 0.0 | 0.00 | 0.00 | 0.00 | 61 | 1018.1 |
| 20260507113018 | 38 | 296 | 0.0 | 0.0 | 0.00 | 0.00 | 0.00 | 61 | 1018.1 |
| 20260507111517 | 38 | 296 | 0.0 | 0.0 | 0.00 | 0.00 | 0.00 | 61 | 1018.1 |
| 20260507110025 | 38 | 296 | 0.0 | 0.0 | 0.00 | 0.00 | 0.00 | 61 | 1017.8 |
| 20260507104513 | 38 | 296 | 0.0 | 0.0 | 0.00 | 0.00 | 0.00 | 61 | 1017.9 |
| 20260507103013 | 38 | 296 | 0.0 | 0.0 | 0.00 | 0.00 | 0.00 | 61 | 1017.9 |
| 20260507101512 | 38 | 296 | 0.0 | 0.0 | 0.00 | 0.00 | 0.00 | 61 | 1017.9 |
| 20260507100018 | 38 | 296 | 0.0 | 0.0 | 0.00 | 0.00 | 0.00 | 61 | 1017.9 |
| 20260507094509 | 39 | 296 | 0.0 | 0.0 | 0.00 | 0.00 | 0.00 | 61 | 1018.1 |
| 20260507093009 | 38 | 296 | 0.0 | 0.0 | 0.00 | 0.00 | 0.00 | 61 | 1018.2 |
| 20260507091507 | 39 | 296 | 0.0 | 0.0 | 0.00 | 0.00 | 0.00 | 61 | 1018.2 |
| 20260507090007 | 39 | 296 | 0.0 | 0.0 | 0.00 | 0.00 | 0.00 | 60 | 1018.2 |
| 20260507084503 | 39 | 296 | 0.0 | 0.0 | 0.00 | 0.00 | 0.00 | 60 | 1018.3 |
| 20260507083003 | 39 | 296 | 0.0 | 0.0 | 0.00 | 0.00 | 0.00 | 60 | 1018.4 |
| 20260507081505 | 40 | 296 | 0.0 | 0.0 | 0.00 | 0.00 | 0.00 | 60 | 1018.4 |
| 20260507080103 | 40 | 296 | 0.0 | 0.0 | 0.00 | 0.00 | 0.00 | 61 | 1018.3 |
| 20260507074612 | 40 | 296 | 0.0 | 0.0 | 0.00 | 0.00 | 0.00 | 61 | 1018.3 |
| 20260507073056 | 41 | 296 | 0.0 | 0.0 | 0.00 | 0.00 | 0.00 | 61 | 1018.5 |
| 20260507071555 | 41 | 296 | 0.0 | 0.0 | 0.00 | 0.00 | 0.00 | 61 | 1018.6 |
| 20260507070106 | 42 | 296 | 0.0 | 0.0 | 0.00 | 0.01 | 0.00 | 61 | 1018.8 |
| 20260507064548 | 43 | 296 | 0.0 | 0.0 | 0.00 | 0.01 | 0.00 | 61 | 1019.0 |
| 20260507063055 | 44 | 296 | 0.0 | 0.0 | 0.00 | 0.01 | 0.00 | 60 | 1019.0 |
| 20260507061548 | 44 | 296 | 0.0 | 0.0 | 0.00 | 0.01 | 0.00 | 59 | 1019.1 |
| 20260507060046 | 45 | 296 | 0.0 | 0.0 | 0.00 | 0.03 | 0.00 | 58 | 1019.2 |
| 20260507054543 | 45 | 296 | 0.0 | 0.0 | 0.00 | 0.03 | 0.00 | 58 | 1019.1 |
| 20260507053040 | 45 | 296 | 0.0 | 0.0 | 0.00 | 0.03 | 0.00 | 59 | 1019.1 |
| 20260507051538 | 45 | 296 | 0.0 | 0.0 | 0.00 | 0.03 | 0.00 | 59 | 1019.1 |
| 20260507050037 | 45 | 296 | 0.0 | 0.0 | 0.00 | 0.04 | 0.03 | 59 | 1019.1 |
| 20260507044535 | 45 | 296 | 0.0 | 0.0 | 0.00 | 0.04 | 0.03 | 59 | 1019.1 |
| 20260507043037 | 45 | 296 | 0.0 | 0.0 | 0.00 | 0.04 | 0.03 | 59 | 1019.0 |
| 20260507041534 | 45 | 296 | 0.0 | 0.0 | 0.00 | 0.04 | 0.03 | 60 | 1019.2 |
| 20260507040034 | 44 | 296 | 0.0 | 0.0 | 0.00 | 0.04 | 0.03 | 59 | 1019.3 |
| 20260507034537 | 44 | 296 | 0.0 | 0.0 | 0.00 | 0.04 | 0.03 | 60 | 1019.4 |
| 20260507033033 | 44 | 296 | 0.0 | 0.0 | 0.00 | 0.04 | 0.03 | 59 | 1019.2 |
| 20260507031531 | 44 | 296 | 0.0 | 0.0 | 0.00 | 0.04 | 0.03 | 56 | 1019.3 |
| 20260507030031 | 44 | 296 | 0.0 | 0.0 | 0.00 | 0.04 | 0.03 | 56 | 1019.2 |
| 20260507024530 | 45 | 296 | 0.0 | 0.0 | 0.00 | 0.04 | 0.03 | 54 | 1019.1 |
| 20260507023029 | 46 | 296 | 0.0 | 0.0 | 0.00 | 0.04 | 0.03 | 52 | 1019.0 |
| 20260507021530 | 46 | 296 | 0.0 | 0.0 | 0.00 | 0.04 | 0.03 | 50 | 1018.9 |
| 20260507020039 | 48 | 296 | 0.0 | 0.0 | 0.00 | 0.04 | 0.03 | 46 | 1018.7 |
| 20260507014528 | 48 | 296 | 0.0 | 0.0 | 0.00 | 0.04 | 0.03 | 45 | 1018.7 |
| 20260507013044 | 50 | 296 | 0.0 | 0.0 | 0.00 | 0.04 | 0.03 | 40 | 1018.7 |
| 20260507011527 | 51 | 296 | 0.0 | 0.0 | 0.00 | 0.04 | 0.03 | 36 | 1018.5 |
| 20260507010034 | 53 | 296 | 0.0 | 0.0 | 0.00 | 0.04 | 0.03 | 31 | 1018.4 |
| 20260507004526 | 56 | 296 | 0.0 | 1.7 | 0.00 | 0.04 | 0.03 | 25 | 1018.6 |
| 20260507003025 | 57 | 291 | 0.0 | 6.1 | 0.00 | 0.04 | 0.03 | 26 | 1018.5 |
| 20260507001529 | 57 | 340 | 0.9 | 3.5 | 0.00 | 0.04 | 0.03 | 23 | 1018.5 |
| 20260507000025 | 58 | 309 | 1.7 | 4.3 | 0.00 | 0.04 | 0.03 | 23 | 1018.6 |
| 20260506234530 | 59 | 299 | 0.9 | 4.3 | 0.00 | 0.04 | 0.03 | 21 | 1018.6 |
| 20260506233027 | 59 | 260 | 0.9 | 7.8 | 0.00 | 0.04 | 0.03 | 24 | 1018.6 |
| 20260506231527 | 59 | 330 | 1.7 | 7.0 | 0.00 | 0.04 | 0.03 | 22 | 1018.6 |
| 20260506230026 | 60 | 22 | 0.9 | 3.5 | 0.00 | 0.04 | 0.03 | 24 | 1018.5 |
| 20260506224521 | 60 | 9 | 1.7 | 5.2 | 0.00 | 0.04 | 0.03 | 23 | 1018.6 |
| 20260506223021 | 60 | 5 | 0.9 | 6.1 | 0.00 | 0.04 | 0.03 | 20 | 1018.6 |
| 20260506221520 | 60 | 311 | 1.7 | 4.3 | 0.00 | 0.04 | 0.03 | 24 | 1018.7 |
| 20260506220027 | 60 | 38 | 2.6 | 7.8 | 0.00 | 0.04 | 0.03 | 23 | 1018.8 |
| 20260506214519 | 60 | 313 | 3.5 | 6.1 | 0.00 | 0.04 | 0.03 | 22 | 1018.8 |
| 20260506213018 | 60 | 258 | 1.7 | 6.1 | 0.00 | 0.04 | 0.03 | 25 | 1019.0 |
| 20260506211525 | 60 | 340 | 1.7 | 5.2 | 0.00 | 0.04 | 0.03 | 26 | 1019.2 |
| 20260506210025 | 60 | 306 | 1.7 | 4.3 | 0.00 | 0.04 | 0.03 | 27 | 1019.3 |
| 20260506204516 | 60 | 301 | 0.9 | 4.3 | 0.00 | 0.04 | 0.03 | 24 | 1019.5 |
| 20260506203014 | 60 | 234 | 0.0 | 5.2 | 0.00 | 0.04 | 0.03 | 28 | 1019.7 |
| 20260506201513 | 60 | 344 | 0.9 | 5.2 | 0.00 | 0.04 | 0.03 | 28 | 1019.8 |
| 20260506200031 | 59 | 259 | 1.7 | 5.2 | 0.00 | 0.04 | 0.03 | 27 | 1019.9 |
| 20260506194511 | 59 | 65 | 0.9 | 7.0 | 0.00 | 0.04 | 0.03 | 24 | 1020.1 |
| 20260506193009 | 59 | 248 | 1.7 | 7.8 | 0.00 | 0.04 | 0.03 | 27 | 1020.2 |
| 20260506191508 | 58 | 14 | 0.9 | 5.2 | 0.00 | 0.04 | 0.03 | 24 | 1020.4 |
| 20260506190007 | 58 | 338 | 1.7 | 9.6 | 0.00 | 0.05 | 0.03 | 26 | 1020.3 |
| 20260506184506 | 57 | 64 | 1.7 | 7.0 | 0.00 | 0.05 | 0.03 | 27 | 1020.7 |
| 20260506183005 | 57 | 245 | 1.7 | 5.2 | 0.00 | 0.05 | 0.03 | 29 | 1020.9 |
| 20260506181504 | 56 | 81 | 1.7 | 6.1 | 0.00 | 0.05 | 0.03 | 26 | 1021.1 |